Medicine Lodge, KS

7:00 PM CDT on May 27, 2017 (GMT -0500)
Medicine Lodge

Weather History for KP28 - October, 2012

Change the Weather History Date:

Saturday, October 27, 2012

  Actual Average Record
Temperature  
Mean Temperature 35 °F 54 °F  
Max Temperature 51 °F 67 °F 92 °F (1950)
Min Temperature 19 °F 42 °F 19 °F (2012)
Degree Days  
Heating Degree Days 30 11  
Month to date heating degree days 221 189  
Since 1 July heating degree days 233 223  
Cooling Degree Days 0 0  
Month to date cooling degree days 44 37  
Year to date cooling degree days 2256 1768  
Moisture  
Dew Point 21 °F    
Average Humidity 59    
Maximum Humidity 84    
Minimum Humidity 33    
Precipitation  
Precipitation 0.00 in 0.08 in 1.28 in (1899)
Month to date precipitation 0.07 2.53  
Year to date precipitation 16.94 24.98  
Snow  
Snow 0.00 in 0.00 in - ()
Month to date snowfall 999.0 0.0  
Since 1 July snowfall 999.0 0.0  
Since 1 September snowfall 999.0 0.0  
Snow Depth 0.00 in    
Sea Level Pressure  
Sea Level Pressure 30.35 in    
Wind  
Wind Speed 4 mph (SSE)    
Max Wind Speed 12 mph    
Max Gust Speed 18 mph    
T = Trace of Precipitation, MM = Missing Value Source: NWS Daily Summary

Daily Weather History Graph

Daily Weather History Graph

Search for Another Location

Airport or City:

Trip Planner

Search our weather history database for the weather conditions in past years. The results will help you decide how hot, cold, wet, or windy it might be!

Date:

Astronomy

Oct. 27, 2012 Rise Set
Actual Time 7:54 AM CDT 6:41 PM CDT
Civil Twilight 7:27 AM CDT 7:08 PM CDT
Nautical Twilight 6:56 AM CDT 7:38 PM CDT
Astronomical Twilight 6:26 AM CDT 8:09 PM CDT
Moon 5:26 PM CDT (10/27) 5:52 AM CDT (10/27)
Length of Visible Light 11h 40m
Length of Day
10h 47m
Waxing Gibbous, 96% of the Moon is Illuminated
Oct 27
Waxing Gibbous
Oct 29
Full
Nov 6
Last Quarter
Nov 13
New
Nov 20
First Quarter

Hourly Weather History & Observations

Time (CDT) Temp. Windchill Dew Point Humidity Pressure Visibility Wind Dir Wind Speed Gust Speed Precip Events Conditions
12:56 AM 26.1 °F - 19.9 °F 78% 30.45 in - Calm Calm - N/A   Unknown
1:56 AM 25.0 °F - 19.0 °F 78% 30.43 in - Calm Calm - N/A   Unknown
2:56 AM 24.1 °F - 19.0 °F 81% 30.42 in - Calm Calm - N/A   Unknown
3:56 AM 25.0 °F 20.7 °F 19.0 °F 78% 30.41 in - West 3.5 mph - N/A   Unknown
4:56 AM 21.9 °F 15.7 °F 18.0 °F 85% 30.40 in - North 4.6 mph - N/A   Unknown
5:56 AM 19.9 °F 14.9 °F 16.0 °F 85% 30.42 in - NNE 3.5 mph - N/A   Unknown
6:56 AM 21.9 °F - 18.0 °F 85% 30.43 in - Calm Calm - N/A   Unknown
7:56 AM 21.0 °F 16.2 °F 17.1 °F 85% 30.44 in - NNE 3.5 mph - N/A   Unknown
8:56 AM 24.1 °F - 19.0 °F 81% 30.44 in - Calm Calm - N/A   Unknown
9:56 AM 37.0 °F 32.4 °F 25.0 °F 62% 30.42 in - SSE 5.8 mph - N/A   Unknown
10:56 AM 39.9 °F 34.5 °F 25.0 °F 55% 30.40 in - ESE 8.1 mph - N/A   Unknown
11:56 AM 43.0 °F 40.3 °F 24.1 °F 47% 30.37 in - Variable 4.6 mph - N/A   Unknown
12:56 PM 46.0 °F 41.4 °F 24.1 °F 42% 30.34 in - South 9.2 mph 18.4 mph N/A   Unknown
1:56 PM 48.0 °F - 24.1 °F 39% 30.31 in - SSW 8.1 mph - N/A   Unknown
2:56 PM 48.9 °F - 24.1 °F 38% 30.27 in - South 6.9 mph - N/A   Unknown
3:56 PM 48.9 °F - 23.0 °F 36% 30.25 in - Variable 5.8 mph - N/A   Unknown
4:56 PM 50.0 °F - 23.0 °F 35% 30.24 in - SE 8.1 mph - N/A   Unknown
5:56 PM 50.0 °F - 23.0 °F 35% 30.24 in - South 8.1 mph - N/A   Unknown
6:56 PM 45.0 °F 41.8 °F 21.9 °F 40% 30.25 in - South 5.8 mph - N/A   Unknown
7:56 PM 44.1 °F 40.8 °F 21.0 °F 40% 30.27 in - SSE 5.8 mph - N/A   Unknown
8:56 PM 42.1 °F 37.7 °F 21.0 °F 43% 30.27 in - SE 6.9 mph - N/A   Unknown
9:56 PM 41.0 °F 37.1 °F 21.0 °F 45% 30.26 in - ESE 5.8 mph - N/A   Unknown
10:56 PM 33.1 °F - 21.0 °F 61% 30.28 in - Calm Calm - N/A   Unknown
11:56 PM 33.1 °F - 19.9 °F 59% 30.29 in - Calm Calm - N/A   Unknown